星链-36577(STARLINK-36577)

导读 | 豆包AI

STARLINK-36577是美国星链计划下的卫星,于2026年1月25日发射升空。星链项目由SpaceX主导,旨在构建全球卫星互联网星座,该卫星入轨后将补充星座网络容量,提升覆盖区域网络的带宽与稳定性,服务全球偏远地区网络接入,以及航空、航海等移动场景互联网连接。

基本信息
目录编号:
67583
目录名称:
STARLINK-36577
国际标识:
2026-016Y
轨道中心:
EARTH
卫星名称:
星链-36577
卫星全名:
星链-36577(STARLINK-36577)
卫星状态:
在轨 (已飞行69 天)
发射日期:
2026-01-25 UTC
国别 :
美国 (US)
星等 :
--
轨道信息
数据来源 国际轨道数据
星历时间: 2026-04-04T04:00:02+0800
5小时前
查看轨道信息
半长轴: 6843.676km
偏心率: 0.0001761
轨道倾角: 97.284°
近地点辐角 93.356°
升交点赤经 154.996°
平近点角 293.992°
近地点: 464.333km
远地点: 466.745km
周期: 93.906分钟
每日圈数: 15.334466
详细信息
固有亮度:
5
最大亮度:
2.5
卫星平台:
Starlink V1.0
覆盖范围:
全球
运营商:
太空探索技术公司
运营商所在国:
美国
制造商(研发单位):
太空探索技术公司
制造商所在国:
美国
使用方式:
暂无
卫星简介
Starlink 计划是 SpaceX 推出的全球卫星互联网项目,通过发射低轨道卫星,为全球尤其是偏远地区提供高速、低延迟的互联网服务。自 2019 年起,Starlink 已部署数千颗卫星,旨在缩小全球数字鸿沟,推动互联网普及。该项目还为军事、航空等行业提供通信支持,带来广泛经济效益。
2D轨道图
3D轨道图
轨道高度分析图
轨道倾角分析图
轨道综合分析图
查看轨道综合分析图